Weather History for Manistique, MI

Change the Weather History Date:

Thursday, December 19, 2013

  Actual Average Record
Temperature  
Mean Temperature 19 °F -  
Max Temperature 26 °F 30 °F 43 °F (1957)
Min Temperature 12 °F 15 °F -15 °F (1983)
Degree Days  
Heating Degree Days 46    
Moisture  
Dew Point 15 °F    
Average Humidity 81    
Maximum Humidity 87    
Minimum Humidity 74    
Precipitation  
Precipitation 0.00 in - - ()
Sea Level Pressure  
Sea Level Pressure 29.92 in    
Wind  
Wind Speed 7 mph (NW)    
Max Wind Speed 17 mph    
Max Gust Speed 24 mph    
Visibility 10 miles    
Events Snow    
Averages and records for this station are not official NWS values.
T = Trace of Precipitation, MM = Missing Value Source: NWS Daily Summary

Daily Weather History Graph

Daily Weather History Graph

Search for Another Location

Airport:

Trip Planner

Search our weather history database for the weather conditions in past years. The results will help you decide how hot, cold, wet, or windy it might be!

Date:

Astronomy

Dec. 19, 2013 Rise Set
Actual Time 8:22 AM EST 5:01 PM EST
Civil Twilight 7:47 AM EST 5:36 PM EST
Nautical Twilight 7:09 AM EST 6:14 PM EST
Astronomical Twilight 6:33 AM EST 6:50 PM EST
Moon 7:33 PM EST (12/19) 9:34 AM EST (12/19)
Length of Visible Light 9h 48m
Length of Day
8h 38m
Waning Gibbous, 95% of the Moon is Illuminated
Dec 19
Waning Gibbous
Dec 25
Last Quarter
Jan 1
New
Jan 7
First Quarter
Jan 15
Full

Hourly Weather History & Observations

Time (EST) Temp. Windchill Dew Point Humidity Pressure Visibility Wind Dir Wind Speed Gust Speed Precip Events Conditions
12:14 AM 24.8 °F 19.1 °F 19.4 °F 80% 29.68 in 10.0 mi West 4.6 mph - N/A   Clear
12:35 AM 22.5 °F 16.3 °F 18.0 °F 83% 29.67 in 10.0 mi West 4.6 mph - N/A   Clear
12:55 AM 21.4 °F 13.8 °F 17.1 °F 83% 29.68 in 10.0 mi West 5.8 mph - N/A   Clear
1:14 AM 20.8 °F 12.1 °F 16.5 °F 83% 29.68 in 10.0 mi West 6.9 mph - N/A   Clear
1:35 AM 19.6 °F 11.7 °F 15.8 °F 85% 29.68 in 10.0 mi West 5.8 mph - N/A   Clear
1:54 AM 18.9 °F 9.8 °F 15.1 °F 85% 29.68 in 10.0 mi West 6.9 mph - N/A   Clear
2:14 AM 18.0 °F 8.7 °F 14.7 °F 87% 29.70 in 10.0 mi WNW 6.9 mph - N/A   Clear
2:35 AM 16.0 °F 7.4 °F 12.7 °F 87% 29.71 in 10.0 mi WNW 5.8 mph - N/A   Clear
2:54 AM 15.6 °F 7.0 °F 12.4 °F 87% 29.72 in 10.0 mi West 5.8 mph - N/A   Clear
3:15 AM 15.4 °F 5.6 °F 11.3 °F 84% 29.72 in 10.0 mi West 6.9 mph - N/A   Clear
3:35 AM 14.7 °F 5.9 °F 10.6 °F 84% 29.73 in 10.0 mi West 5.8 mph - N/A   Clear
3:54 AM 14.4 °F 5.5 °F 9.9 °F 82% 29.74 in 10.0 mi West 5.8 mph - N/A   Clear
4:15 AM 14.0 °F 3.9 °F 9.0 °F 80% 29.74 in 10.0 mi WNW 6.9 mph - N/A   Clear
4:35 AM 14.0 °F 3.9 °F 8.6 °F 79% 29.75 in 10.0 mi West 6.9 mph - N/A   Clear
4:54 AM 14.7 °F 7.3 °F 9.1 °F 79% 29.75 in 10.0 mi West 4.6 mph - N/A   Scattered Clouds
5:15 AM 13.1 °F 2.8 °F 8.6 °F 82% 29.76 in 10.0 mi West 6.9 mph - N/A   Mostly Cloudy
5:34 AM 12.9 °F 3.8 °F 8.6 °F 83% 29.78 in 10.0 mi West 5.8 mph - N/A   Overcast
5:54 AM 15.8 °F 6.1 °F 10.9 °F 81% 29.78 in 10.0 mi WNW 6.9 mph - N/A   Overcast
6:15 AM 16.9 °F 7.4 °F 11.5 °F 79% 29.78 in 10.0 mi West 6.9 mph - N/A   Overcast
6:34 AM 18.3 °F 10.2 °F 12.7 °F 79% 29.79 in 10.0 mi West 5.8 mph - N/A   Overcast
6:55 AM 18.3 °F 13.1 °F 13.1 °F 80% 29.80 in 10.0 mi WSW 3.5 mph - N/A   Overcast
7:15 AM 19.2 °F 14.1 °F 14.0 °F 80% 29.80 in 10.0 mi West 3.5 mph - N/A   Overcast
7:34 AM 19.8 °F 13.2 °F 14.7 °F 81% 29.81 in 10.0 mi WSW 4.6 mph - N/A   Overcast
7:55 AM 20.3 °F 12.5 °F 15.4 °F 81% 29.83 in 10.0 mi West 5.8 mph - N/A   Overcast
8:14 AM 20.1 °F 13.6 °F 15.6 °F 83% 29.85 in 10.0 mi WSW 4.6 mph - N/A   Overcast
8:34 AM 20.1 °F 15.2 °F 15.8 °F 83% 29.85 in 10.0 mi WSW 3.5 mph - N/A   Overcast
8:55 AM 20.5 °F 14.0 °F 16.5 °F 85% 29.86 in 10.0 mi West 4.6 mph - N/A   Overcast
9:14 AM 20.8 °F 14.4 °F 16.9 °F 85% 29.88 in 10.0 mi WSW 4.6 mph - N/A   Overcast
9:35 AM 21.2 °F 14.9 °F 17.2 °F 85% 29.89 in 10.0 mi WSW 4.6 mph - N/A   Overcast
9:55 AM 21.6 °F 15.3 °F 17.8 °F 85% 29.90 in 10.0 mi WSW 4.6 mph - N/A   Overcast
10:14 AM 22.6 °F 16.5 °F 19.2 °F 87% 29.91 in 10.0 mi WNW 4.6 mph - N/A   Overcast
10:35 AM 26.6 °F 17.5 °F 21.4 °F 81% 29.93 in 10.0 mi NW 9.2 mph 18.4 mph N/A   Overcast
10:55 AM 26.6 °F 16.2 °F 21.2 °F 80% 29.95 in 10.0 mi NNW 11.5 mph - N/A   Overcast
11:14 AM 26.6 °F 18.2 °F 21.2 °F 80% 29.96 in 10.0 mi NW 8.1 mph - N/A   Overcast
11:35 AM 26.4 °F 16.6 °F 21.2 °F 81% 29.97 in 10.0 mi NW 10.4 mph 16.1 mph N/A   Overcast
11:54 AM 26.4 °F 14.5 °F 20.3 °F 78% 29.96 in 10.0 mi NNW 15.0 mph 21.9 mph N/A   Overcast
12:15 PM 26.2 °F 15.2 °F 20.3 °F 78% 29.97 in 10.0 mi NNW 12.7 mph 19.6 mph N/A   Overcast
12:35 PM 25.7 °F 15.7 °F 20.1 °F 79% 29.98 in 10.0 mi NW 10.4 mph 16.1 mph N/A   Overcast
12:54 PM 25.7 °F 15.7 °F 19.9 °F 79% 29.98 in 10.0 mi NW 10.4 mph 20.7 mph N/A   Overcast
1:15 PM 25.5 °F 13.3 °F 19.2 °F 77% 29.99 in 10.0 mi North 15.0 mph 20.7 mph N/A   Overcast
1:35 PM 24.8 °F 14.0 °F 18.3 °F 76% 30.00 in 10.0 mi North 11.5 mph 23.0 mph N/A   Overcast
1:54 PM 24.4 °F 13.5 °F 18.3 °F 78% 30.00 in 10.0 mi North 11.5 mph - N/A   Overcast
2:15 PM 23.9 °F 10.3 °F 17.2 °F 76% 30.01 in 10.0 mi North 17.3 mph 20.7 mph N/A   Overcast
2:34 PM 23.0 °F 11.7 °F 16.2 °F 75% 30.00 in 10.0 mi NNW 11.5 mph 24.2 mph N/A   Overcast
2:54 PM 23.0 °F 13.1 °F 15.8 °F 74% 30.01 in 10.0 mi North 9.2 mph 20.7 mph N/A   Overcast
3:15 PM 22.1 °F 10.0 °F 15.4 °F 76% 30.03 in 10.0 mi North 12.7 mph 16.1 mph N/A   Overcast
3:34 PM 21.9 °F 10.4 °F 15.4 °F 76% 30.03 in 10.0 mi North 11.5 mph 19.6 mph N/A   Overcast
3:55 PM 21.7 °F 10.2 °F 15.8 °F 78% 30.03 in 10.0 mi North 11.5 mph - N/A   Overcast
4:15 PM 21.2 °F 8.9 °F 16.0 °F 80% 30.03 in 10.0 mi North 12.7 mph 16.1 mph N/A Snow Light Snow
4:34 PM 20.8 °F 9.7 °F 15.1 °F 78% 30.04 in 10.0 mi North 10.4 mph 19.6 mph N/A   Overcast
4:55 PM 20.3 °F 7.7 °F 14.9 °F 80% 30.05 in 10.0 mi North 12.7 mph - N/A   Overcast
5:15 PM 20.1 °F 6.4 °F 14.5 °F 79% 30.03 in 10.0 mi North 15.0 mph 20.7 mph N/A   Overcast
5:34 PM 19.6 °F 9.7 °F 14.4 °F 80% 30.04 in 10.0 mi North 8.1 mph - N/A   Overcast
5:55 PM 19.4 °F 9.5 °F 14.5 °F 81% 30.03 in 10.0 mi North 8.1 mph - N/A   Overcast
6:14 PM 19.4 °F 11.5 °F 14.4 °F 81% 30.04 in 10.0 mi North 5.8 mph - N/A   Overcast
6:34 PM 19.4 °F 8.6 °F 14.4 °F 81% 30.05 in 10.0 mi North 9.2 mph - N/A   Overcast
6:55 PM 19.4 °F 10.4 °F 14.5 °F 81% 30.06 in 10.0 mi North 6.9 mph - N/A   Overcast
7:14 PM 19.4 °F 11.5 °F 14.4 °F 81% 30.07 in 10.0 mi North 5.8 mph - N/A   Overcast
7:35 PM 19.4 °F 7.9 °F 14.4 °F 81% 30.06 in 10.0 mi North 10.4 mph - N/A   Overcast
7:55 PM 19.4 °F 11.5 °F 14.0 °F 80% 30.07 in 10.0 mi North 5.8 mph - N/A   Overcast
8:14 PM 19.4 °F 10.4 °F 14.0 °F 80% 30.08 in 10.0 mi North 6.9 mph - N/A   Overcast
8:35 PM 19.4 °F 8.6 °F 14.2 °F 80% 30.06 in 10.0 mi North 9.2 mph - N/A   Overcast
8:54 PM 19.2 °F 9.3 °F 14.0 °F 80% 30.06 in 10.0 mi North 8.1 mph - N/A   Overcast
9:14 PM 19.4 °F 11.5 °F 14.4 °F 81% 30.07 in 10.0 mi North 5.8 mph - N/A   Overcast
9:35 PM 19.4 °F 11.5 °F 14.0 °F 80% 30.07 in 10.0 mi North 5.8 mph - N/A   Overcast
9:54 PM 19.2 °F 9.3 °F 13.8 °F 80% 30.06 in 10.0 mi North 8.1 mph - N/A   Overcast
10:15 PM 19.2 °F 5.8 °F 14.0 °F 80% 30.05 in 10.0 mi North 13.8 mph - N/A   Overcast
10:35 PM 19.2 °F 5.3 °F 14.0 °F 80% 30.04 in 10.0 mi North 15.0 mph - N/A   Overcast
10:54 PM 19.0 °F 7.5 °F 14.0 °F 81% 30.04 in 10.0 mi North 10.4 mph 16.1 mph N/A   Overcast
11:15 PM 19.0 °F 6.8 °F 14.0 °F 81% 30.05 in 10.0 mi North 11.5 mph - N/A   Overcast
11:34 PM 19.0 °F 7.5 °F 13.6 °F 79% 30.05 in 10.0 mi NNE 10.4 mph - N/A   Overcast
11:55 PM 18.9 °F 5.3 °F 13.5 °F 79% 30.03 in 10.0 mi North 13.8 mph - N/A   Overcast